Location: Krasnoyarskiy Pitomnik
(51.1333°N, 71.6167°E)
Time: 10:22:45
(UTC+00:00)

USA 215 - Pass Details

Date: 22 October 2021
Orbit: 1099 x 1109 km, 123.0° (Epoch: 20 November)

Event Time Altitude Azimuth Distance (km) Brightness Sun altitude
Exits shadow 13:28:05 13° 60° (ENE) 2,729 4.8 -13.4°
Maximum altitude 13:33:59 74° 338° (NNW) 1,146 3.4 -14.4°
Drops below altitude 10° 13:40:31 10° 254° (WSW) 2,963 6.7 -15.4°
Sets 13:43:00 0° 253° (WSW) 3,921 7.6 -15.8°
